Flag for U.S.A. Weather past 2 weeks in Chula Vista, California, U.S.A.

Now
74 °F

Clear.


Feels Like: 74 °F
Forecast: 70 / 88 °F
Wind: No wind

Location: Brown Field Municipal Airport

Current Time: Sep 15, 2014 at 3:19:50 AM

Latest Report: Sep 15, 2014 at 2:53 AM


Visibility: 10 mi

Pressure: 29.75 "Hg

Humidity: 82%

Dew point: 68 °F

Location of Chula VistaLocation

Historic Weather in Chula Vista — Graph

°F

Chula Vista temperature yesterday

Maximum temperature yesterday: 90 °F (at 10:53 AM)
Minimum temperature yesterday: 69 °F (at 6:53 AM)
Average temperature yesterday: 78 °F

Past Weeks' High & Low Weather Summary

 TemperatureHumidityPressure
High90 °F (Sep 14, 10:53 AM)97% (Sep 1, 2:53 AM)29.92 "Hg (Sep 1, 2:53 AM)
Low63 °F (Sep 5, 2:53 AM)35% (Sep 8, 3:53 PM)29.69 "Hg (Sep 13, 4:53 PM)
Average74 °F72%29.81 "Hg
* Reported Aug 31 1:53 AM — Sep 15 1:53 AM, Chula Vista, Weather by CustomWeather, © 2014

Note: Actual official high and low records may vary slightly from our data, if they occured in-between our weather recording intervals... More about our weather records

Advertising

Chula Vista weather history for previous 24 hours

 ConditionsComfort  
Time TempWeatherWind HumidityBarometerVisibility
1:53 AM
Sep 15
75 °FClear.5 mph82%29.75 "Hg10 mi
12:53 AM71 °FClear.6 mph90%29.76 "Hg10 mi
11:53 PM
Sep 14
72 °FClear.No wind91%29.77 "Hg10 mi
10:53 PM73 °FClear.No wind88%29.77 "Hg10 mi
9:53 PM73 °FClear.No wind88%29.76 "Hg10 mi
8:53 PM74 °FClear.No wind85%29.76 "Hg10 mi
7:53 PM75 °FSunny.3 mph82%29.73 "Hg10 mi
6:53 PM77 °FSunny.8 mph77%29.72 "Hg10 mi
5:53 PM82 °FSunny.6 mph63%29.70 "Hg10 mi
4:53 PM86 °FSunny.8 mph53%29.70 "Hg10 mi
3:53 PM87 °FSunny.8 mph51%29.69 "Hg10 mi
2:53 PM88 °FSunny.8 mph52%29.70 "Hg10 mi
1:53 PM89 °FSunny.6 mph50%29.72 "Hg10 mi
12:53 PM87 °FSunny.7 mph53%29.73 "Hg10 mi
11:53 AM88 °FSunny.10 mph46%29.73 "Hg10 mi
10:53 AM90 °FSunny.7 mph39%29.74 "Hg10 mi
9:53 AM87 °FSunny.5 mph50%29.74 "Hg10 mi
8:53 AM82 °FSunny.No wind56%29.74 "Hg10 mi
7:53 AM76 °FSunny.No wind72%29.73 "Hg10 mi
6:53 AM69 °FClear.No wind90%29.73 "Hg7 mi
5:53 AM71 °FClear.No wind84%29.72 "Hg10 mi
4:53 AM70 °FClear.No wind90%29.71 "Hg9 mi
3:53 AM70 °FClear.No wind93%29.71 "Hg8 mi
Weather by CustomWeather, © 2014

See weather overviewHow to use our weather pages